TimeEDT,TemperatureF,Dew PointF,Humidity,Sea Level PressureIn,VisibilityMPH,Wind Direction,Wind SpeedMPH,Gust SpeedMPH,PrecipitationIn,Events,Conditions,WindDirDegrees,DateUTC
12:56 AM,72.0,70.0,93,30.04,10.0,SSW,8.1,-,N/A,,Overcast,200,2013-06-11 04:56:00
1:56 AM,73.0,70.0,90,30.03,10.0,SSW,5.8,-,N/A,,Mostly Cloudy,200,2013-06-11 05:56:00
2:56 AM,73.0,71.1,93,30.01,10.0,SSW,5.8,-,N/A,,Mostly Cloudy,200,2013-06-11 06:56:00
3:56 AM,73.9,72.0,93,30.01,10.0,SW,8.1,-,N/A,,Mostly Cloudy,220,2013-06-11 07:56:00
4:56 AM,73.9,72.0,93,30.01,10.0,WSW,5.8,-,N/A,,Mostly Cloudy,240,2013-06-11 08:56:00
5:56 AM,73.9,72.0,93,30.02,10.0,WSW,6.9,-,N/A,,Scattered Clouds,240,2013-06-11 09:56:00
6:56 AM,73.9,71.1,91,30.03,10.0,WSW,8.1,-,N/A,,Scattered Clouds,240,2013-06-11 10:56:00
7:56 AM,75.9,71.1,85,30.03,10.0,WSW,10.4,-,N/A,,Scattered Clouds,240,2013-06-11 11:56:00
8:47 AM,77.0,71.6,83,30.04,10.0,West,12.7,17.3,N/A,,Mostly Cloudy,260,2013-06-11 12:47:00
8:56 AM,75.9,71.1,85,30.04,10.0,West,11.5,-,N/A,,Mostly Cloudy,260,2013-06-11 12:56:00
9:56 AM,75.9,70.0,82,30.05,10.0,West,10.4,-,N/A,,Overcast,270,2013-06-11 13:56:00
10:34 AM,78.8,69.8,74,30.05,10.0,WSW,10.4,-,N/A,,Scattered Clouds,250,2013-06-11 14:34:00
10:56 AM,80.1,70.0,71,30.05,10.0,WSW,9.2,-,N/A,,Mostly Cloudy,250,2013-06-11 14:56:00
11:56 AM,82.0,70.0,67,30.04,10.0,West,8.1,-,N/A,,Scattered Clouds,260,2013-06-11 15:56:00
12:56 PM,86.0,72.0,63,30.02,10.0,WSW,10.4,-,N/A,,Scattered Clouds,240,2013-06-11 16:56:00
1:56 PM,86.0,71.1,61,30.01,10.0,West,12.7,-,N/A,,Mostly Cloudy,260,2013-06-11 17:56:00
2:56 PM,89.1,72.0,57,29.99,10.0,West,10.4,19.6,N/A,,Mostly Cloudy,260,2013-06-11 18:56:00
3:56 PM,89.1,72.0,57,29.96,10.0,WSW,10.4,-,N/A,,Scattered Clouds,240,2013-06-11 19:56:00
4:56 PM,89.1,71.1,55,29.95,10.0,SW,9.2,16.1,N/A,,Scattered Clouds,230,2013-06-11 20:56:00
5:56 PM,86.0,73.9,67,29.95,10.0,South,9.2,-,N/A,Thunderstorm,Thunderstorm,190,2013-06-11 21:56:00
6:56 PM,79.0,73.9,84,29.95,7.0,WSW,5.8,-,0.08,Rain-Thunderstorm,Light Thunderstorms and Rain,240,2013-06-11 22:56:00
7:14 PM,78.8,73.4,83,29.96,10.0,South,4.6,-,0.00,,Mostly Cloudy,190,2013-06-11 23:14:00
7:56 PM,78.1,73.9,87,29.96,10.0,SSE,9.2,-,0.00,,Mostly Cloudy,160,2013-06-11 23:56:00
8:30 PM,78.8,73.4,83,29.95,10.0,SSE,10.4,-,N/A,Thunderstorm,Thunderstorm,150,2013-06-12 00:30:00
8:56 PM,78.1,73.0,84,29.96,10.0,SE,8.1,-,0.00,Rain-Thunderstorm,Light Thunderstorms and Rain,130,2013-06-12 00:56:00
9:05 PM,78.8,73.4,83,29.99,2.0,ENE,15.0,-,0.01,Rain-Thunderstorm,Heavy Thunderstorms and Rain,60,2013-06-12 01:05:00
9:16 PM,77.0,69.8,78,30.00,1.0,North,13.8,23.0,0.41,Rain-Thunderstorm,Heavy Thunderstorms with Small Hail,350,2013-06-12 01:16:00
9:31 PM,78.8,71.6,78,29.98,1.0,South,17.3,-,1.38,Rain-Thunderstorm,Heavy Thunderstorms and Rain,170,2013-06-12 01:31:00
9:36 PM,75.2,73.4,94,29.98,7.0,South,4.6,17.3,1.47,Rain-Thunderstorm,Light Thunderstorms and Rain,180,2013-06-12 01:36:00
9:56 PM,77.0,73.9,90,29.99,10.0,WSW,5.8,-,1.47,Thunderstorm,Thunderstorm,240,2013-06-12 01:56:00
10:26 PM,77.0,73.4,89,29.99,10.0,SSW,4.6,-,N/A,,Mostly Cloudy,200,2013-06-12 02:26:00
10:56 PM,75.9,73.9,94,29.99,10.0,South,5.8,-,N/A,,Mostly Cloudy,170,2013-06-12 02:56:00
11:56 PM,75.9,72.0,87,29.99,10.0,Calm,Calm,-,N/A,,Mostly Cloudy,0,2013-06-12 03:56:00